This is the latest recevied weather packets stored in our database for station/object IU6BJT. If no packets are shown the sender has not sent any weather packets the latest 10 day(s).
| Time | Temp. | Humidity | Pressure | Rain* | Wind** | Luminosity | Snow |
|---|---|---|---|---|---|---|---|
| 1777494631 | 18.33° C | 74% | 1017.1 hPa | 0 mm | - | - | - |
| 1777494030 | 18.33° C | 74% | 1016.8 hPa | 0 mm | - | - | - |
| 1777493446 | 18.33° C | 76% | 1017 hPa | 0 mm | - | - | - |
| 1777492221 | 17.78° C | 81% | 1016.9 hPa | 0 mm | - | - | - |
| 1777491034 | 17.78° C | 80% | 1016.6 hPa | 0 mm | - | - | - |
| 1777489848 | 17.78° C | 78% | 1016.3 hPa | 0 mm | - | - | - |
| 1777489245 | 17.78° C | 79% | 1016.2 hPa | 0 mm | - | - | - |
| 1777486854 | 18.33° C | 76% | 1015.7 hPa | 0 mm | - | - | - |
| 1777486231 | 18.33° C | 77% | 1015.6 hPa | 0 mm | - | - | - |
| 1777482031 | 19.44° C | 74% | 1015.2 hPa | 0 mm | - | - | - |
| 1777481449 | 19.44° C | 72% | 1015 hPa | 0 mm | - | - | - |
| 1777470034 | 20.56° C | 75% | 1015.4 hPa | 0 mm | - | - | - |
| 1777467644 | 20° C | 77% | 1015.5 hPa | 0 mm | - | - | - |
| 1777465231 | 20° C | 77% | 1015.5 hPa | 0 mm | - | - | - |
| 1777462216 | 20.56° C | 75% | 1015.5 hPa | 0 mm | - | - | - |
| 1777459824 | 20° C | 73% | 1015.7 hPa | 0 mm | - | - | - |
| 1777459221 | 20° C | 75% | 1015.8 hPa | 0 mm | - | - | - |
| 1777457432 | 20° C | 69% | 1015.7 hPa | 0 mm | - | - | - |
| 1777450217 | 20° C | 73% | 1015.9 hPa | 0 mm | - | - | - |
| 1777443624 | 15.56° C | 78% | 1015.3 hPa | 0 mm | - | - | - |
| 1777441855 | 13.89° C | 82% | 1015.4 hPa | 0 mm | - | - | - |
| 1777441252 | 13.33° C | 84% | 1015.3 hPa | 0 mm | - | - | - |
| 1777438820 | 12.22° C | 88% | 1015.3 hPa | 0 mm | - | - | - |
| 1777433455 | 11.67° C | 92% | 1014.7 hPa | 0 mm | - | - | - |
| 1777432832 | 11.67° C | 93% | 1014.7 hPa | 0 mm | - | - | - |
* Rain latest hour (hover to see other rain measurements)
** Current wind speed in m/s (hover to see current wind gust speed)